Meteo Giornale » Osservazioni meteo Messico » Mexico City-Licenci

ore: 15:51 - Osservazioni Meteo Mexico City-Licenci
Lat. 19° 26' N Lon. 99° 6' W Alt. 2238 metri s.l.m.

foschia America/Mexico_City

23 °C

Foschia

Temp. 24 Ore

10 °C

24 °C

Sud

7.4 Km/h

Dew point 3 °C

Umidità 26 %

Visibilità  5 Km

Il sole sorge alle ore 06:59

Il sole tramonta alle ore 18:40

Data e Ora Cielo e Fenomeni T °C DP °C Um. % Pres. hPa Vis. km Vento km/h
Oggi h: 15:51 foschia Foschia 23 3 26 1024 5 S 7.4
Oggi h: 14:44 nuvoloso Nuvoloso 24 3 25 1025 6 E 7.4
Oggi h: 13:51 nuvoloso Nuvoloso 23 3 26 1026 10 E/SE 7.4
Oggi h: 12:48 sereno Sereno 23 3 26 1027 10 N 5.5
Oggi h: 12:18 sereno Sereno 22 3 28 1028 10 E/SE 13
Oggi h: 11:44 sereno Sereno 20 4 34 1028 8 N/NE 7.4
Oggi h: 10:45 sereno Sereno 19 4 37 1029 8 NE 7.4
Oggi h: 10:29 sereno Sereno 19 4 37 1029 8 SE 7.4
Oggi h: 09:41 sereno Sereno 17 4 41 1029 8 N 0
Oggi h: 09:19 sereno Sereno 16 4 44 1029 10 N 0
Oggi h: 08:47 sereno Sereno 14 4 50 1029 10 N 5.5
Oggi h: 08:20 sereno Sereno 12 4 57 1029 10 E/NE 7.4
Oggi h: 07:47 sereno Sereno 10 3 61 1028 10 N 5.5
Oggi h: 06:48 sereno Sereno 10 3 61 1027 14 E 13
Oggi h: 05:44 sereno Sereno 12 3 54 1026 19 SO 7.4
Oggi h: 04:47 sereno Sereno 12 4 57 1026 19 N 0
Oggi h: 03:45 sereno Sereno 13 3 50 1026 19 N 0
Oggi h: 02:48 sereno Sereno 14 4 50 1026 18 N 5.5
Oggi h: 01:51 sereno Sereno 15 3 44 1026 18 N 5.5
Oggi h: 01:08 sereno Sereno 15 3 44 1026 18 N 5.5
Ieri h: 23:47 sereno Sereno 16 3 41 1026 18 E 11.1
Ieri h: 22:44 sereno Sereno 16 3 41 1026 18 E/SE 9.3
Ieri h: 21:42 sereno Sereno 17 3 39 1025 18 S/SE 16.7
Ieri h: 20:46 sereno Sereno 18 4 39 1025 10 S 18.5
Ieri h: 19:46 sereno Sereno 19 5 39 1024 14 S/SE 27.8
Ieri h: 18:48 nuvoloso Nuvoloso 20 4 34 1023 11 S/SO 18.5
Ieri h: 18:41 nuvoloso Nuvoloso 20 4 34 1023 11 S 18.5
Ieri h: 17:54 nuvoloso Nuvoloso 22 3 28 1023 11 S/SO 11.1
Ieri h: 16:49 molto_nuvoloso Molto Nuvoloso 23 4 28 1022 10 S/SE 24
Ieri h: 15:51 molto_nuvoloso Molto Nuvoloso 22 3 28 1022 10 E 7.4